User: anonymous   Login
Location: Unspecified
(37.6100°N, 2.7800°W)
Time: 06:07:28
(UTC+00:00)
Language:

Envisat - Orbit

View from above orbital plane
View from above orbital plane
View from above satellite
View from above satellite

Ground track
Ground track

The orbit data is extracted from the following two-line orbital elements,

1 27386U 02009A   19077.56114476  .00000002  00000-0  14098-4 0  9993
2 27386  98.1582 103.2583 0001372  98.7792  74.7926 14.37943569892957
Epoch (UTC): 18 March 2019 13:28:02
Eccentricity: 0.0001372
inclination: 98.1582°
perigee height: 764 km
apogee height: 766 km
right ascension of ascending node: 103.2583°
argument of perigee: 98.7792°
revolutions per day: 14.37943569
mean anomaly at epoch: 74.7926°
orbit number at epoch: 89295

The dashed part of the orbit path shows where the satellite is in the earth's shadow,  

DLR